Weather History for KSHN - January, 2013

Change the Weather History Date:

Friday, January 4, 2013

  Actual Average Record
Temperature  
Mean Temperature 40 °F -  
Max Temperature 45 °F 42 °F 59 °F (1984)
Min Temperature 35 °F 31 °F 8 °F (2004)
Degree Days  
Heating Degree Days 25    
Moisture  
Dew Point 39 °F    
Average Humidity 99    
Maximum Humidity 100    
Minimum Humidity 93    
Precipitation  
Precipitation 0.10 in - - ()
Sea Level Pressure  
Sea Level Pressure 30.22 in    
Wind  
Wind Speed 0 mph (NNW)    
Max Wind Speed 6 mph    
Max Gust Speed -    
Visibility 8 miles    
Events Rain    
Averages and records for this station are not official NWS values.
T = Trace of Precipitation, MM = Missing Value Source: NWS Daily Summary

Daily Weather History Graph

Daily Weather History Graph

Search for Another Location

Airport or City:

Trip Planner

Search our weather history database for the weather conditions in past years. The results will help you decide how hot, cold, wet, or windy it might be!

Date:

Astronomy

Jan. 04, 2013 Rise Set
Actual Time 7:59 AM PST 4:36 PM PST
Civil Twilight 7:23 AM PST 5:11 PM PST
Nautical Twilight 6:45 AM PST 5:50 PM PST
Astronomical Twilight 6:08 AM PST 6:27 PM PST
Moon No Moon Rise 11:13 AM PST
Length of Visible Light 9h 48m
Length of Day
8h 37m
Waning Gibbous, 54% of the Moon is Illuminated
Jan 4
Waning Gibbous
Jan 4
Last Quarter
Jan 11
New
Jan 18
First Quarter
Jan 26
Full

Hourly Weather History & Observations

Time (PST) Temp. Windchill Dew Point Humidity Pressure Visibility Wind Dir Wind Speed Gust Speed Precip Events Conditions
12:53 AM 35.1 °F - 35.1 °F 100% 30.17 in 6.0 mi Calm Calm - 0.01 in Rain Light Rain
1:02 AM 35.6 °F - 35.6 °F 100% 30.15 in 7.0 mi Calm Calm - 0.01 in Rain Light Rain
1:16 AM 35.6 °F - 35.6 °F 100% 30.16 in 7.0 mi Calm Calm - N/A Rain Light Rain
1:25 AM 35.6 °F - 35.6 °F 100% 30.17 in 7.0 mi Calm Calm - 0.03 in Rain Light Rain
1:53 AM 35.1 °F - 35.1 °F 100% 30.19 in 8.0 mi Calm Calm - 0.04 in Rain Light Rain
2:09 AM 35.6 °F - 35.6 °F 100% 30.18 in 10.0 mi Calm Calm - 0.00 in Rain Light Rain
2:53 AM 35.1 °F - 35.1 °F 100% 30.22 in 9.0 mi Calm Calm - 0.02 in   Overcast
3:53 AM 36.0 °F - 36.0 °F 100% 30.22 in 6.0 mi Calm Calm - 0.01 in   Overcast
4:53 AM 35.6 °F - 35.6 °F 100% 30.21 in 9.0 mi Calm Calm - N/A   Overcast
5:35 AM 35.6 °F - 35.6 °F 100% 30.22 in 8.0 mi Calm Calm - 0.00 in Rain Light Rain
5:53 AM 36.0 °F - 36.0 °F 100% 30.24 in 7.0 mi Calm Calm - 0.01 in   Overcast
6:53 AM 36.0 °F - 36.0 °F 100% 30.26 in 9.0 mi Calm Calm - 0.01 in   Overcast
7:53 AM 36.0 °F - 36.0 °F 100% 30.28 in 7.0 mi Calm Calm - N/A   Overcast
8:26 AM 35.6 °F - 35.6 °F 100% 30.27 in 10.0 mi Calm Calm - N/A   Overcast
8:49 AM 37.4 °F 34.9 °F 35.6 °F 93% 30.28 in 8.0 mi WSW 3.5 mph - N/A   Overcast
8:50 AM 37.0 °F 34.5 °F 36.0 °F 96% 30.29 in 8.0 mi SW 3.5 mph - N/A   Overcast
9:17 AM 37.4 °F - 37.4 °F 100% 30.28 in 10.0 mi Calm Calm - N/A   Mostly Cloudy
9:49 AM 39.2 °F - 39.2 °F 100% 30.29 in 10.0 mi Calm Calm - N/A   Mostly Cloudy
9:53 AM 39.9 °F - 39.9 °F 100% 30.31 in 10.0 mi Calm Calm - N/A   Mostly Cloudy
10:53 AM 42.1 °F - 41.0 °F 96% 30.31 in 10.0 mi Calm Calm - N/A   Overcast
11:53 AM 44.1 °F - 43.0 °F 96% 30.29 in 10.0 mi Calm Calm - N/A   Overcast
12:03 PM 44.6 °F - 42.8 °F 93% 30.27 in 10.0 mi Calm Calm - N/A   Overcast
12:21 PM 44.6 °F - 42.8 °F 93% 30.27 in 10.0 mi Calm Calm - N/A   Overcast
12:53 PM 45.0 °F - 43.0 °F 93% 30.27 in 10.0 mi Calm Calm - N/A   Overcast
1:02 PM 44.6 °F - 42.8 °F 93% 30.25 in 10.0 mi Calm Calm - N/A   Overcast
1:39 PM 44.6 °F - 44.6 °F 100% 30.24 in 10.0 mi Calm Calm - N/A   Scattered Clouds
1:46 PM 44.6 °F - 44.6 °F 100% 30.24 in 10.0 mi Calm Calm - N/A   Mostly Cloudy
1:53 PM 45.0 °F - 44.1 °F 97% 30.25 in 10.0 mi Calm Calm - N/A   Mostly Cloudy
2:53 PM 45.0 °F - 43.0 °F 93% 30.25 in 10.0 mi Calm Calm - N/A   Mostly Cloudy
3:18 PM 44.6 °F - 42.8 °F 93% 30.23 in 10.0 mi Calm Calm - N/A   Scattered Clouds
3:53 PM 45.0 °F 43.5 °F 43.0 °F 93% 30.23 in 10.0 mi ENE 3.5 mph - N/A   Mostly Cloudy
4:53 PM 42.8 °F 41.1 °F 42.8 °F 100% 30.20 in 10.0 mi North 3.5 mph - N/A   Scattered Clouds
5:22 PM 42.8 °F - 42.8 °F 100% 30.20 in 10.0 mi Calm Calm - N/A   Scattered Clouds
5:53 PM 39.9 °F - 39.9 °F 100% 30.22 in 2.5 mi Calm Calm - N/A   Mostly Cloudy
6:00 PM 39.2 °F - 39.2 °F 100% 30.20 in 1.5 mi Calm Calm - N/A   Overcast
6:44 PM 41.0 °F - 41.0 °F 100% 30.19 in 2.5 mi Calm Calm - N/A   Overcast
6:51 PM 41.0 °F - 41.0 °F 100% 30.19 in 6.0 mi Calm Calm - N/A   Overcast
6:53 PM 41.0 °F - 41.0 °F 100% 30.21 in 9.0 mi Calm Calm - N/A   Overcast
7:15 PM 39.2 °F - 39.2 °F 100% 30.18 in 10.0 mi Calm Calm - N/A   Overcast
7:53 PM 41.0 °F - 41.0 °F 100% 30.19 in 10.0 mi Calm Calm - N/A   Partly Cloudy
8:09 PM 39.2 °F 35.0 °F 39.2 °F 100% 30.17 in 10.0 mi North 5.8 mph - N/A   Scattered Clouds
8:19 PM 39.2 °F 35.9 °F 39.2 °F 100% 30.17 in 10.0 mi North 4.6 mph - N/A   Mostly Cloudy
8:53 PM 39.9 °F - 39.9 °F 100% 30.18 in 10.0 mi Calm Calm - N/A   Mostly Cloudy
9:44 PM 39.2 °F - 39.2 °F 100% 30.16 in 10.0 mi Calm Calm - N/A   Overcast
9:53 PM 39.0 °F - 39.0 °F 100% 30.18 in 10.0 mi Calm Calm - N/A   Overcast
10:25 PM 39.2 °F - 39.2 °F 100% 30.16 in 10.0 mi Calm Calm - N/A   Mostly Cloudy
10:53 PM 37.9 °F - 37.9 °F 100% 30.17 in 4.0 mi Calm Calm - N/A   Overcast
11:02 PM 37.4 °F - 37.4 °F 100% 30.16 in 2.5 mi Calm Calm - N/A   Overcast
11:19 PM 39.2 °F - 39.2 °F 100% 30.15 in 6.0 mi Calm Calm - N/A   Overcast
11:31 PM 37.4 °F - 37.4 °F 100% 30.15 in 5.0 mi Calm Calm - N/A   Overcast
11:53 PM 37.9 °F - 37.9 °F 100% 30.16 in 7.0 mi Calm Calm - N/A   Overcast